Point Lay, AK

2:34 PM AKST on January 18, 2017 (GMT -0900)
Point Lay

Weather History for PPIZ - November, 2012

Change the Weather History Date:

Friday, November 9, 2012

  Actual Average Record
Temperature  
Mean Temperature 15 °F -  
Max Temperature 21 °F 12 °F 34 °F (2013)
Min Temperature 9 °F 4 °F -9 °F (2001)
Degree Days  
Heating Degree Days 50    
Moisture  
Dew Point 12 °F    
Average Humidity 81    
Maximum Humidity 86    
Minimum Humidity 73    
Precipitation  
Precipitation 0.00 in - - ()
Sea Level Pressure  
Sea Level Pressure 30.12 in    
Wind  
Wind Speed 1 mph (ENE)    
Max Wind Speed 9 mph    
Max Gust Speed -    
Visibility 10 miles    
Events      
Averages and records for this station are not official NWS values.
T = Trace of Precipitation, MM = Missing Value Source: NWS Daily Summary

Daily Weather History Graph

Daily Weather History Graph

Search for Another Location

Airport or City:

Trip Planner

Search our weather history database for the weather conditions in past years. The results will help you decide how hot, cold, wet, or windy it might be!

Date:

Astronomy

Nov. 09, 2012 Rise Set
Actual Time 11:05 AM AKST 4:05 PM AKST
Civil Twilight 9:40 AM AKST 5:29 PM AKST
Nautical Twilight 8:23 AM AKST 6:47 PM AKST
Astronomical Twilight 7:12 AM AKST 7:57 PM AKST
Moon 3:41 AM AKST (11/9) 3:43 PM AKST (11/9)
Length of Visible Light 7h 48m
Length of Day
5h 00m
Waning Crescent, 22% of the Moon is Illuminated
Nov 9
Waning Crescent
Nov 13
New
Nov 20
First Quarter
Nov 28
Full
Dec 6
Last Quarter

Hourly Weather History & Observations

Time (AKST) Temp. Windchill Dew Point Humidity Pressure Visibility Wind Dir Wind Speed Gust Speed Precip Events Conditions
12:56 AM 20.1 °F - 16.2 °F 85% 30.24 in 10.0 mi Calm Calm - 0.00 in   Overcast
1:56 AM 20.1 °F - 16.2 °F 85% 30.23 in 10.0 mi Calm Calm - N/A   Overcast
2:56 AM 20.1 °F - 16.2 °F 85% 30.22 in 10.0 mi Calm Calm - N/A   Overcast
3:56 AM 21.0 °F - 16.2 °F 81% 30.21 in 10.0 mi Calm Calm - N/A   Overcast
4:56 AM 21.0 °F - 17.1 °F 85% 30.20 in 10.0 mi Calm Calm - N/A   Overcast
5:56 AM 21.0 °F - 16.2 °F 81% 30.19 in 10.0 mi Calm Calm - N/A   Overcast
6:56 AM 19.0 °F 11.1 °F 15.1 °F 85% 30.18 in 10.0 mi ESE 5.8 mph - N/A   Mostly Cloudy
7:56 AM 17.1 °F - 12.0 °F 81% 30.16 in 10.0 mi Calm Calm - N/A   Overcast
8:56 AM 15.8 °F 6.1 °F 10.4 °F 79% 30.14 in 10.0 mi ESE 6.9 mph - N/A   Mostly Cloudy
9:22 AM 15.8 °F - 8.6 °F 73% 30.14 in 10.0 mi Calm Calm - N/A   Mostly Cloudy
9:56 AM 16.2 °F 7.6 °F 10.0 °F 77% 30.15 in 10.0 mi SE 5.8 mph - N/A   Overcast
10:56 AM 16.2 °F - 11.1 °F 81% 30.15 in 8.0 mi Calm Calm - 0.00 in   Overcast
11:56 AM 17.1 °F - 12.0 °F 81% 30.14 in 10.0 mi Calm Calm - N/A   Mostly Cloudy
12:56 PM 17.1 °F - 12.0 °F 81% 30.14 in 10.0 mi Calm Calm - N/A   Overcast
1:56 PM 18.1 °F - 13.1 °F 81% 30.12 in 10.0 mi Calm Calm - N/A   Overcast
2:56 PM 18.1 °F - 13.1 °F 81% 30.11 in 10.0 mi Calm Calm - N/A   Overcast
3:29 PM 19.4 °F - 14.0 °F 80% 30.09 in 10.0 mi Calm Calm - N/A   Overcast
3:56 PM 19.0 °F - 14.0 °F 81% 30.09 in 10.0 mi Calm Calm - N/A   Overcast
4:43 PM 19.4 °F 14.3 °F 15.8 °F 86% 30.08 in 10.0 mi NNE 3.5 mph - N/A   Overcast
4:56 PM 20.1 °F 12.3 °F 16.2 °F 85% 30.09 in 10.0 mi NE 5.8 mph - N/A   Overcast
5:33 PM 17.6 °F 7.3 °F 12.2 °F 79% 30.07 in 10.0 mi NNE 8.1 mph - N/A   Mostly Cloudy
5:56 PM 14.0 °F 2.0 °F 9.1 °F 81% 30.08 in 10.0 mi NNE 9.2 mph - N/A   Clear
6:56 PM 10.0 °F - 5.0 °F 80% 30.07 in 10.0 mi Calm Calm - N/A   Clear
7:56 PM 10.0 °F - 5.0 °F 80% 30.07 in 10.0 mi Calm Calm - N/A   Clear
8:30 PM 10.4 °F - 3.2 °F 73% 30.05 in 10.0 mi Calm Calm - N/A   Mostly Cloudy
8:56 PM 10.0 °F - 4.1 °F 77% 30.06 in 10.0 mi Calm Calm - N/A   Mostly Cloudy
9:56 PM 9.1 °F - 4.1 °F 80% 30.05 in 10.0 mi Calm Calm - N/A   Mostly Cloudy
10:56 PM 12.0 °F - 7.2 °F 81% 30.04 in 10.0 mi Calm Calm - N/A   Overcast
11:56 PM 15.1 °F - 10.0 °F 80% 30.04 in 10.0 mi Calm Calm - N/A   Overcast